Resultados

800 Electronico
Fecha Serie Viento Presión Humedad Temperatura
21-02-2016 Final_A
Puesto Andanivel Nombre Dia Mes Año Pais Marca
01 Martino Gerardo 10 12 1992 FLRES - 1.52.79 -
02 Sepulveda Alfredo 3 8 1993 - - 1.53.53
03 Silva Andres Byron 27 3 1986 FAM - 1.53.95 -
04 Perez Jairo 24 03 1992 FAM - 1.57.11 -
05 Sepulveda Gabriel 19 7 1995 CHI - 1.59.66
06 Fernandez Moises 16 8 1982 MRUN - 2.01.94 -
07 Colo Sebastian 29 1 1989 FAM - 2.02.87 -
08 Segovia Cristian 20 12 1995 ISAAC - 2.03.77 -
09 Coito Leonardo 10 9 1994 ART - 2.04.11 -
10 Arbiza Juan 5 11 1992 CAPOA - 2.05.41 -
11 Gargallo Matias 22 12 1998 NAC - 2.06.02 -
12 Garcia Leoni 19 6 1995 FOA - 2.06.59 -
13 Lopez Martin 20 5 1985 VO2 - 2.07.61 -
14 Gularte Rodrigo 29 3 2000 APRAD - 2.07.86 -
15 Nevel Juan 13 10 2000 CAPOA - 2.07.95 -
16 Mora Pablo 19 3 1979 DSP - 2.09.28 -
17 Rodriguez Joaquin 4 11 1993 NAC - 2.09.41 -
18 Flores Guillermo 27 8 1985 ATE - 2.09.57 -
19 Suhr Julio 5 3 1995 NAC - 2.10.50 -
20 Fernandez Manuel 21 8 1998 NAC - 2.13.48 -
21 Mendez Maikol 21 9 1993 - - 2.13.78 -
22 Navas Nicolas 10 5 1994 ATE - 2.15.77 -
23 Cuturia Enzo 19 3 1999 SACUD - 2.17.07 -
24 Mendez Enzo 17 12 1998 CAPOA - 2.17.41 -
24 Clok Omar 14 8 1954 NAC - 2.17.41 -
25 Gronrroz Ciro 5 10 2000 DSP - 2.19.22
26 Lorenzo Elian 26 3 2000 CAPOA - 2.19.31 -
27 Maximiliano Maldonado 28 12 1985 FAM - 2.19.60 -
28 De Oliveira Alejandro 13 10 1999 SACUD - 2.21.66 -
29 Mateos Cristian 23 11 2001 SACUD - 2.21.70 -
30 Reinoso Sebastián 13 6 1999 AGUIL - 2.27.40 -
31 De Los Santos Joaquin 24 9 1999 DSP - 2.28.00 -
32 Campopiano Lucas 25 8 1999 AGUIL - 2.38.12 -
33 Lopez Alberto 17 10 2001 SACUD - 2.57.46 -
99 Bonner Juan 15 11 1982 FAM - 2.11.80 -